Location: Veyrier
(46.1830°N, 6.2000°E)
Time: 13:09:11
(UTC+02:00)

Daily predictions for brighter satellites

Satellite Brightness Start Highest point End
(mag) Time Altitude Azimuth Time Altitude Azimuth Time Altitude Azimuth
Cosmos 1934 Rocket 4.0 20:18:44 10° S 20:24:45 62° E 20:30:43 10° NNE
CZ-3B DEB 3.0 20:12:58 10° SW 20:24:48 72° SE 20:30:05 10° ENE
COSMO-SKYMED 1 4.1 20:21:46 10° N 20:25:52 42° WNW 20:29:57 10° SW
Resurs 1-3 4.0 20:23:07 10° SE 20:27:16 44° ENE 20:31:27 10° N
Cosmos 1805 4.1 20:24:36 10° SSE 20:27:57 28° E 20:31:18 10° NNE
Cosmos 1378 3.6 20:26:39 10° NNW 20:30:24 68° W 20:34:07 10° S
ATLAS 5 CENTAUR R/B 3.4 20:30:25 10° SE 20:32:45 14° ESE 20:35:10 10° ENE
COSMOS 2487 3.7 20:31:12 10° N 20:34:13 25° ENE 20:37:14 10° ESE
Cosmos 1437 Rocket 3.2 20:32:01 10° SSW 20:36:02 70° WNW 20:40:07 10° N
FengYun 1-2 T 4.3 20:32:12 10° SSE 20:37:47 86° ENE 20:43:27 10° NNW
Cosmos 1867 4.4 20:38:29 10° S 20:43:07 29° ESE 20:47:46 10° NE
Meteor 1-4 Rocket 3.3 20:40:16 10° SSE 20:43:18 29° E 20:46:21 10° NNE
Cosmos 1470 4.3 20:41:11 10° SE 20:43:49 17° E 20:46:27 10° NE
USA 267 4.3 20:39:46 10° ENE 20:45:38 37° N 20:51:31 10° NW
SJ-6B 3.8 20:42:15 10° S 20:45:51 47° W 20:49:30 10° NNW
Meteor 1-24 Rocket 4.1 20:40:44 10° NNW 20:46:11 69° W 20:51:48 10° S
Cosmos 1340 Rocket 4.2 20:44:04 10° NNE 20:47:11 21° ENE 20:49:28 14° ESE
Cosmos 2082 Rocket 2.5 20:42:17 10° NNW 20:47:52 52° ENE 20:53:22 10° SE
Spot 2 Rocket 3.5 20:43:40 10° SSE 20:48:46 81° ENE 20:53:54 10° NNW
Okean 3 Rocket 3.5 20:44:58 10° N 20:49:22 74° E 20:53:46 10° SSE
Cosmos 1821 Rocket 4.4 20:43:31 10° SSW 20:49:53 71° W 20:56:14 10° N
Cosmos 1544 3.2 20:47:35 10° S 20:51:07 49° E 20:54:42 10° NNE
Cosmos 990 Rocket 4.5 20:53:33 10° SSW 20:58:46 66° WNW 21:04:00 10° NNE
Lacrosse 5 1.9 20:56:08 10° SW 21:01:13 90° SE 21:06:19 10° NE
H-2A R/B 3.2 20:59:04 10° S 21:02:56 64° W 21:06:53 10° NNW
CZ-4B DEB 3.3 21:01:50 19° SE 21:03:34 36° ENE 21:06:28 10° N
Cosmos 1076 Rocket 3.4 21:00:47 10° N 21:05:03 70° E 21:09:16 10° SSE
Helios 1B rocket 2.8 21:02:11 10° NNE 21:06:08 42° E 21:10:03 10° S
Envisat 3.3 21:02:12 11° SE 21:06:51 46° ENE 21:11:42 10° N
Cosmos 1605 Rocket 4.0 21:01:38 10° S 21:07:54 90° SE 21:14:20 10° N
ISS -1.4 21:07:23 10° SSE 21:07:27 10° SSE 21:07:27 10° SSE
Cosmos 2100 Rocket 4.4 21:03:56 10° SSE 21:09:49 43° E 21:15:46 10° NNE
Cosmos 1758 3.2 21:06:45 10° S 21:10:42 74° E 21:14:42 10° NNE
H-2A R/B 4.1 21:10:20 10° ENE 21:11:38 11° NE 21:13:10 10° NE
Cosmos 482 Debris 3.2 21:09:54 10° NW 21:11:39 37° NNE 21:11:42 37° NNE
CZ-3 Stage 3 4.4 20:29:27 10° WSW 21:11:45 42° SSW 21:18:32 16° SE
Fregat R/B Cluster 11 4.3 21:08:42 10° SSW 21:14:13 53° SE 21:17:31 10° NE
Cosmos 1125 Rocket 3.4 21:10:12 10° S 21:15:19 64° ESE 21:20:30 10° NNE
Cosmos 1048 Rocket 3.9 21:11:11 10° NNW 21:16:21 85° ENE 21:21:10 12° SSE
GP-B 3.1 21:12:38 10° SSE 21:17:00 62° E 21:21:24 10° N
Lacrosse 4 Rocket 3.8 21:14:18 10° WSW 21:17:37 24° NW 21:20:57 10° N
Geosat 3.9 21:12:58 10° NNE 21:17:59 65° ESE 21:22:58 10° SSW
Cosmos 1953 2.2 21:14:47 10° S 21:18:51 84° E 21:22:56 10° N
Cosmos 1766 Rocket 3.5 21:14:50 10° N 21:19:20 73° E 21:23:42 11° SSE
Abrixas 3.9 21:18:29 10° W 21:20:58 27° SSW 21:21:58 22° S
Helios 1A 2.9 21:17:15 10° SSE 21:21:25 88° WSW 21:25:38 10° NNW
Resurs 01 Rocket 2.8 21:18:25 10° S 21:22:37 43° W 21:26:52 10° NNW
Cosmos 1939 Rocket 3.1 21:21:53 24° SE 21:24:10 52° ENE 21:28:13 10° N
ERS-1 Rocket 3.5 21:23:23 25° ESE 21:25:41 39° ENE 21:30:20 10° N
Cosmos 1271 Rocket 2.9 21:25:52 10° S 21:29:45 52° E 21:33:42 10° NNE
SeaSat 1 4.4 21:26:04 10° SSW 21:30:13 27° WSW 21:34:25 10° NW
Cosmos 1802 Rocket 4.2 21:24:50 10° SSE 21:30:39 47° E 21:36:33 10° NNE
Cosmos-2242 2.9 21:29:15 10° S 21:33:27 65° E 21:37:41 10° NNE
USA 186 2.8 21:33:40 19° SSW 21:34:45 29° W 21:36:45 10° NNW
SJ-11-01 4.2 21:31:34 19° SSE 21:34:56 75° ENE 21:39:40 10° N
Lacrosse 5 rocket 1.1 21:34:36 10° NW 21:38:35 77° NE 21:39:32 48° ESE
Cosmos 1184 Rocket 3.3 21:38:49 10° N 21:41:45 43° NE 21:41:45 43° NE
Cosmos 2061 Rocket 4.0 21:37:24 10° S 21:43:43 66° E 21:50:06 10° NNE
Cosmos 1674 3.2 21:40:31 10° NNW 21:44:14 59° W 21:46:59 17° S
Timation 2 Rocket 4.1 21:39:46 10° NNW 21:46:07 75° WSW 21:50:21 21° SSE
Cosmos 2251 Rocket 3.7 21:45:22 10° NNW 21:50:37 55° ENE 21:52:07 41° ESE
Cosmos 1743 Rocket 3.4 21:46:26 10° N 21:50:53 74° E 21:52:16 43° SSE
Cosmos 1500 Rocket 3.5 21:48:26 10° N 21:52:43 56° ENE 21:53:09 53° ESE
YAOGAN 6 2.7 21:53:05 60° ENE 21:53:05 60° ENE 21:56:44 10° N
H-2A R/B 4.2 21:55:08 13° NE 21:55:08 13° NE 21:56:10 10° NNE
USA 215 3.3 21:47:37 10° ENE 21:54:00 53° SE 22:00:20 10° SSW
Cosmos 1833 Rocket 3.3 21:51:03 10° NW 21:56:32 55° WSW 22:00:25 19° S
Cosmos 1356 Rocket 3.3 21:55:13 10° N 21:59:19 62° ENE 21:59:19 62° ENE
MetOp-B 4.3 21:59:32 44° ESE 22:00:38 52° ENE 22:05:50 10° N
Cosmos 1459 Rocket 4.0 21:55:44 10° S 22:02:00 86° W 22:08:13 10° N
Meteor 1-29 4.0 21:59:31 10° N 22:02:53 47° WNW 22:06:14 10° SSW
NOAA 11 4.4 22:01:50 45° ESE 22:02:59 53° ENE 22:08:21 10° N
Cosmos 2278 Rocket 3.9 21:59:29 10° WSW 22:04:35 33° NW 22:09:44 10° NNE
Cosmos 2173 Rocket 4.0 22:01:19 10° S 22:07:30 81° W 22:13:49 10° N
ATLAS 5 CENTAUR R/B 1.7 22:11:47 10° SW 22:16:32 86° NW 22:21:46 10° NE
Cosmos 1626 4.2 22:14:08 10° N 22:15:31 19° NNE 22:15:31 19° NNE
Cosmos 1470 4.1 22:15:52 10° SW 22:19:37 39° WNW 22:23:22 10° N
Cosmos 1340 Rocket 4.3 22:20:07 10° NNW 22:23:46 33° W 22:25:08 26° SW
Cosmos 1867 4.3 22:21:08 10° SW 22:26:27 52° NW 22:31:49 10° NNE
Cosmos 1842 Rocket 3.6 22:27:03 75° W 22:27:06 75° W 22:31:31 10° N
USA 267 3.4 22:26:09 46° E 22:28:02 65° NNE 22:34:30 10° NW
Meteor 1-11 4.1 22:22:53 10° NNW 22:28:30 84° W 22:29:38 59° S
Cosmos 2058 3.6 22:25:46 10° N 22:28:53 49° N 22:28:53 49° N
Cosmos 2082 Rocket 4.0 22:26:57 10° NW 22:31:37 27° WSW 22:35:27 13° SSW
USA 245 4.1 22:31:54 70° ESE 22:32:28 76° ENE 22:38:44 10° N
Cosmos 2151 3.4 22:29:43 10° NNW 22:33:23 61° NW 22:33:23 61° NW
Cosmos 494 Rocket 4.2 22:31:35 10° NNW 22:36:39 62° WSW 22:37:10 59° SW
CZ-3B DEB 3.2 22:30:09 10° W 22:37:07 36° NNW 22:38:51 26° NNE
Cosmos 2016 Rocket 4.3 22:33:39 13° SSW 22:39:16 64° W 22:45:24 10° N
YAOGAN 11 4.5 22:40:00 64° W 22:40:00 64° W 22:44:22 10° NNW
Lacrosse 5 3.5 22:40:13 10° W 22:44:44 31° NNW 22:47:42 18° NNE
MetOp-A 4.3 22:46:00 60° SW 22:46:34 64° WSW 22:51:54 10° NNW
ARGOS 3.1 22:47:01 85° WNW 22:47:01 85° WNW 22:52:18 10° NNW
Cosmos 1725 Rocket 4.0 22:45:20 48° SSW 22:47:13 79° W 22:53:27 10° N
SPOT 5 3.1 22:47:19 76° WSW 22:47:25 76° WSW 22:52:46 10° NNW
H-2A R/B 2.5 22:50:58 55° NNE 22:50:58 55° NNE 22:55:20 10° N
Meteor 2-1 Rocket 4.2 22:51:49 76° NNE 22:51:49 76° NNE 22:57:01 10° NNE
Tsikada Rocket 4.4 22:55:32 10° NNW 23:01:36 58° W 23:02:51 49° SW
Terra 3.3 23:08:08 30° N 23:08:08 30° N 23:10:40 10° N
Lacrosse 5 rocket 4.2 23:15:03 10° W 23:15:15 11° W 23:15:15 11° W
Cosmos 2369 Rocket 3.8 23:29:46 26° NNE 23:29:46 26° NNE 23:32:10 10° NNE
H-2A R/B 4.4 23:32:15 20° NNW 23:32:15 20° NNW 23:33:36 10° NNW
USA 215 3.6 23:30:40 10° NE 23:37:05 60° NNW 23:43:28 10° WSW
Cosmos 2227 Rocket 4.3 23:35:13 10° N 23:38:11 17° NNE 23:38:11 17° NNE
